Location: Colossi of Memnon
(25.7167°N, 32.6167°E)
Time: 01:59:11
(UTC+00:00)

Cosmos 1782 - Pass Details

Date: 05 March 2021
Orbit: 536 x 551 km, 82.5° (Epoch: 21 April)

Event Time Altitude Azimuth Distance (km) Brightness Sun altitude
Rises 03:22:43 0° 195° (SSW) 2,670 6.2 -11.2°
Reaches altitude 10° 03:24:54 10° 200° (SSW) 1,782 5.2 -10.7°
Maximum altitude 03:28:42 50° 276° (W) 684 2.9 -9.9°
Drops below altitude 10° 03:32:32 10° 353° (N) 1,794 5.4 -9.0°
Sets 03:34:45 0° 359° (N) 2,689 6.3 -8.5°
